Time,TemperatureF,DewpointF,PressureIn,WindDirection,WindDirectionDegrees,WindSpeedMPH,WindSpeedGustMPH,Humidity,HourlyPrecipIn,Conditions,Clouds,dailyrainin,SolarRadiationWatts/m^2,SoftwareType,DateUTC
2013-06-04 00:03:00,69.0,62.0,-100.00,SSW,206,0.0,3.0,78,0.00,,,0.01,0.000000,,2013-06-04 04:03:00,
2013-06-04 00:33:00,69.0,60.0,-100.00,NW,314,2.0,4.0,72,0.00,,,0.01,0.000000,,2013-06-04 04:33:00,
2013-06-04 00:42:00,69.0,60.0,-100.00,NW,314,2.0,4.0,72,0.00,,,0.01,0.000000,,2013-06-04 04:42:00,
2013-06-04 00:53:00,69.0,60.0,-100.00,NW,314,2.0,4.0,72,0.00,,,0.01,0.000000,,2013-06-04 04:53:00,
2013-06-04 01:02:00,69.0,60.0,-100.00,NW,314,2.0,4.0,72,0.00,,,0.01,0.000000,,2013-06-04 05:02:00,
2013-06-04 01:32:00,66.0,60.0,-100.00,SW,214,0.0,4.0,80,0.00,,,0.01,0.000000,,2013-06-04 05:32:00,
2013-06-04 01:42:00,66.0,60.0,-100.00,SW,214,0.0,4.0,80,0.00,,,0.01,0.000000,,2013-06-04 05:42:00,
2013-06-04 01:52:00,66.0,60.0,-100.00,SW,214,0.0,4.0,80,0.00,,,0.01,0.000000,,2013-06-04 05:52:00,
2013-06-04 02:02:00,66.0,60.0,-100.00,SW,214,0.0,4.0,80,0.00,,,0.01,0.000000,,2013-06-04 06:02:00,
2013-06-04 02:32:00,65.0,61.0,-100.00,SE,131,0.0,2.0,86,0.00,,,0.01,0.000000,,2013-06-04 06:32:00,
2013-06-04 02:42:00,65.0,61.0,-100.00,SE,131,0.0,2.0,86,0.00,,,0.01,0.000000,,2013-06-04 06:42:00,
2013-06-04 02:52:00,65.0,61.0,-100.00,SE,131,0.0,2.0,86,0.00,,,0.01,0.000000,,2013-06-04 06:52:00,
2013-06-04 03:02:00,65.0,61.0,-100.00,SE,131,0.0,2.0,86,0.00,,,0.01,0.000000,,2013-06-04 07:02:00,
2013-06-04 03:32:00,63.0,60.0,-100.00,SSW,206,0.0,3.0,89,0.00,,,0.01,0.000000,,2013-06-04 07:32:00,
2013-06-04 03:42:00,63.0,60.0,-100.00,SSW,206,0.0,3.0,89,0.00,,,0.01,0.000000,,2013-06-04 07:42:00,
2013-06-04 03:52:00,63.0,60.0,-100.00,SSW,206,0.0,3.0,89,0.00,,,0.01,0.000000,,2013-06-04 07:52:00,
2013-06-04 04:02:00,63.0,60.0,-100.00,SSW,206,0.0,3.0,89,0.00,,,0.01,0.000000,,2013-06-04 08:02:00,
2013-06-04 04:32:00,61.0,60.0,-100.00,SW,228,0.0,2.0,96,0.00,,,0.01,0.000000,,2013-06-04 08:32:00,
2013-06-04 04:42:00,61.0,60.0,-100.00,SW,228,0.0,2.0,96,0.00,,,0.01,0.000000,,2013-06-04 08:42:00,
2013-06-04 04:52:00,61.0,60.0,-100.00,SW,228,0.0,2.0,96,0.00,,,0.01,0.000000,,2013-06-04 08:52:00,
2013-06-04 05:02:00,61.0,60.0,-100.00,SW,228,0.0,2.0,96,0.00,,,0.01,0.000000,,2013-06-04 09:02:00,
2013-06-04 05:33:00,59.0,58.0,-100.00,SSW,204,0.0,2.0,98,0.00,,,0.01,0.000000,,2013-06-04 09:33:00,
2013-06-04 05:43:00,59.0,58.0,-100.00,SSW,204,0.0,2.0,98,0.00,,,0.01,0.000000,,2013-06-04 09:43:00,
2013-06-04 05:53:00,59.0,58.0,-100.00,SSW,204,0.0,2.0,98,0.00,,,0.01,0.000000,,2013-06-04 09:53:00,
2013-06-04 06:03:00,59.0,58.0,-100.00,SSW,204,0.0,2.0,98,0.00,,,0.01,0.000000,,2013-06-04 10:03:00,
2013-06-04 06:33:00,59.0,59.0,-100.00,SW,226,1.0,2.0,99,0.00,,,0.01,0.000000,,2013-06-04 10:33:00,
2013-06-04 06:42:00,59.0,59.0,-100.00,SW,226,1.0,2.0,99,0.00,,,0.01,0.000000,,2013-06-04 10:42:00,
2013-06-04 06:53:00,59.0,59.0,-100.00,SW,226,1.0,2.0,99,0.00,,,0.01,0.000000,,2013-06-04 10:53:00,
2013-06-04 07:02:00,59.0,59.0,-100.00,SW,226,1.0,2.0,99,0.00,,,0.01,0.000000,,2013-06-04 11:02:00,
2013-06-04 07:32:00,61.0,60.0,-100.00,SSW,210,0.0,2.0,97,0.00,,,0.01,31.000000,,2013-06-04 11:32:00,
2013-06-04 07:43:00,61.0,60.0,-100.00,SSW,210,0.0,2.0,97,0.00,,,0.01,31.000000,,2013-06-04 11:43:00,
2013-06-04 07:52:00,61.0,60.0,-100.00,SSW,210,0.0,2.0,97,0.00,,,0.01,31.000000,,2013-06-04 11:52:00,
2013-06-04 08:02:00,61.0,60.0,-100.00,SSW,210,0.0,2.0,97,0.00,,,0.01,31.000000,,2013-06-04 12:02:00,
2013-06-04 08:32:00,68.0,61.0,-100.00,ESE,114,2.0,4.0,79,0.00,,,0.00,174.000000,,2013-06-04 12:32:00,
2013-06-04 08:42:00,68.0,61.0,-100.00,ESE,114,2.0,4.0,79,0.00,,,0.00,174.000000,,2013-06-04 12:42:00,
2013-06-04 08:53:00,68.0,61.0,-100.00,ESE,114,2.0,4.0,79,0.00,,,0.00,174.000000,,2013-06-04 12:53:00,
2013-06-04 09:03:00,68.0,61.0,-100.00,ESE,114,2.0,4.0,79,0.00,,,0.00,174.000000,,2013-06-04 13:03:00,
2013-06-04 09:32:00,70.0,61.0,-100.00,East,86,4.0,11.0,74,0.00,,,0.00,361.000000,,2013-06-04 13:32:00,
2013-06-04 09:42:00,70.0,61.0,-100.00,East,86,4.0,11.0,74,0.00,,,0.00,361.000000,,2013-06-04 13:42:00,
2013-06-04 09:52:00,70.0,61.0,-100.00,East,86,4.0,11.0,74,0.00,,,0.00,361.000000,,2013-06-04 13:52:00,
2013-06-04 10:02:00,70.0,61.0,-100.00,East,86,4.0,11.0,74,0.00,,,0.00,361.000000,,2013-06-04 14:02:00,
2013-06-04 10:32:00,72.0,61.0,-100.00,NE,51,5.0,9.0,69,0.00,,,0.00,556.000000,,2013-06-04 14:32:00,
2013-06-04 10:43:00,72.0,61.0,-100.00,NE,51,5.0,9.0,69,0.00,,,0.00,556.000000,,2013-06-04 14:43:00,
2013-06-04 10:52:00,72.0,61.0,-100.00,NE,51,5.0,9.0,69,0.00,,,0.00,556.000000,,2013-06-04 14:52:00,
2013-06-04 11:02:00,72.0,61.0,-100.00,NE,51,5.0,9.0,69,0.00,,,0.00,556.000000,,2013-06-04 15:02:00,
2013-06-04 11:33:00,76.0,62.0,-100.00,East,96,4.0,8.0,62,0.00,,,0.00,679.000000,,2013-06-04 15:33:00,
2013-06-04 11:42:00,76.0,62.0,-100.00,East,96,4.0,8.0,62,0.00,,,0.00,679.000000,,2013-06-04 15:42:00,
2013-06-04 11:53:00,76.0,62.0,-100.00,East,96,4.0,8.0,62,0.00,,,0.00,679.000000,,2013-06-04 15:53:00,
2013-06-04 12:03:00,76.0,62.0,-100.00,East,96,4.0,8.0,62,0.00,,,0.00,679.000000,,2013-06-04 16:03:00,
2013-06-04 12:33:00,78.0,62.0,-100.00,NE,35,3.0,7.0,57,0.00,,,0.00,799.000000,,2013-06-04 16:33:00,
2013-06-04 12:42:00,78.0,62.0,-100.00,NE,35,3.0,7.0,57,0.00,,,0.00,799.000000,,2013-06-04 16:42:00,
2013-06-04 12:53:00,78.0,62.0,-100.00,NE,35,3.0,7.0,57,0.00,,,0.00,799.000000,,2013-06-04 16:53:00,
2013-06-04 13:03:00,78.0,62.0,-100.00,NE,35,3.0,7.0,57,0.00,,,0.00,799.000000,,2013-06-04 17:03:00,
2013-06-04 13:33:00,80.0,59.0,-100.00,North,352,4.0,10.0,49,0.00,,,0.00,781.000000,,2013-06-04 17:33:00,
2013-06-04 13:42:00,80.0,59.0,-100.00,North,352,4.0,10.0,49,0.00,,,0.00,781.000000,,2013-06-04 17:42:00,
2013-06-04 13:52:00,80.0,59.0,-100.00,North,352,4.0,10.0,49,0.00,,,0.00,781.000000,,2013-06-04 17:52:00,
2013-06-04 14:02:00,80.0,59.0,-100.00,North,352,4.0,10.0,49,0.00,,,0.00,781.000000,,2013-06-04 18:02:00,
2013-06-04 14:32:00,82.0,59.0,-100.00,NNW,338,4.0,9.0,46,0.00,,,0.00,917.000000,,2013-06-04 18:32:00,
2013-06-04 14:42:00,82.0,59.0,-100.00,NNW,338,4.0,9.0,46,0.00,,,0.00,917.000000,,2013-06-04 18:42:00,
2013-06-04 14:53:00,82.0,59.0,-100.00,NNW,338,4.0,9.0,46,0.00,,,0.00,917.000000,,2013-06-04 18:53:00,
2013-06-04 15:02:00,82.0,59.0,-100.00,NNW,338,4.0,9.0,46,0.00,,,0.00,917.000000,,2013-06-04 19:02:00,
2013-06-04 15:33:00,82.0,56.0,-100.00,NE,45,4.0,8.0,41,0.00,,,0.00,883.000000,,2013-06-04 19:33:00,
2013-06-04 15:42:00,82.0,56.0,-100.00,NE,45,4.0,8.0,41,0.00,,,0.00,883.000000,,2013-06-04 19:42:00,
2013-06-04 15:52:00,82.0,56.0,-100.00,NE,45,4.0,8.0,41,0.00,,,0.00,883.000000,,2013-06-04 19:52:00,
2013-06-04 16:03:00,82.0,56.0,-100.00,NE,45,4.0,8.0,41,0.00,,,0.00,883.000000,,2013-06-04 20:03:00,
2013-06-04 16:32:00,83.0,58.0,-100.00,NE,53,4.0,8.0,43,0.00,,,0.00,777.000000,,2013-06-04 20:32:00,
2013-06-04 16:42:00,83.0,58.0,-100.00,NE,53,4.0,8.0,43,0.00,,,0.00,777.000000,,2013-06-04 20:42:00,
2013-06-04 16:53:00,83.0,58.0,-100.00,NE,53,4.0,8.0,43,0.00,,,0.00,777.000000,,2013-06-04 20:53:00,
2013-06-04 17:02:00,83.0,58.0,-100.00,NE,53,4.0,8.0,43,0.00,,,0.00,777.000000,,2013-06-04 21:02:00,
2013-06-04 17:33:00,84.0,59.0,-100.00,NNE,26,3.0,6.0,43,0.00,,,0.00,620.000000,,2013-06-04 21:33:00,
2013-06-04 17:42:00,84.0,59.0,-100.00,NNE,26,3.0,6.0,43,0.00,,,0.00,620.000000,,2013-06-04 21:42:00,
2013-06-04 17:53:00,84.0,59.0,-100.00,NNE,26,3.0,6.0,43,0.00,,,0.00,620.000000,,2013-06-04 21:53:00,
2013-06-04 18:02:00,84.0,59.0,-100.00,NNE,26,3.0,6.0,43,0.00,,,0.00,620.000000,,2013-06-04 22:02:00,
2013-06-04 18:33:00,84.0,59.0,-100.00,NNE,29,2.0,6.0,43,0.00,,,0.00,450.000000,,2013-06-04 22:33:00,
2013-06-04 18:42:00,84.0,59.0,-100.00,NNE,29,2.0,6.0,43,0.00,,,0.00,450.000000,,2013-06-04 22:42:00,
2013-06-04 18:52:00,84.0,59.0,-100.00,NNE,29,2.0,6.0,43,0.00,,,0.00,450.000000,,2013-06-04 22:52:00,
2013-06-04 19:02:00,84.0,59.0,-100.00,NNE,29,2.0,6.0,43,0.00,,,0.00,450.000000,,2013-06-04 23:02:00,
2013-06-04 19:32:00,82.0,60.0,-100.00,WSW,258,2.0,6.0,47,0.00,,,0.00,275.000000,,2013-06-04 23:32:00,
2013-06-04 19:42:00,82.0,60.0,-100.00,WSW,258,2.0,6.0,47,0.00,,,0.00,275.000000,,2013-06-04 23:42:00,
2013-06-04 19:52:00,82.0,60.0,-100.00,WSW,258,2.0,6.0,47,0.00,,,0.00,275.000000,,2013-06-04 23:52:00,
2013-06-04 20:02:00,82.0,60.0,-100.00,WSW,258,2.0,6.0,47,0.00,,,0.00,275.000000,,2013-06-05 00:02:00,
2013-06-04 20:33:00,77.0,61.0,-100.00,WNW,292,1.0,4.0,58,0.00,,,0.00,45.000000,,2013-06-05 00:33:00,
2013-06-04 20:42:00,77.0,61.0,-100.00,WNW,292,1.0,4.0,58,0.00,,,0.00,45.000000,,2013-06-05 00:42:00,
2013-06-04 20:52:00,77.0,61.0,-100.00,WNW,292,1.0,4.0,58,0.00,,,0.00,45.000000,,2013-06-05 00:52:00,
2013-06-04 21:02:00,77.0,61.0,-100.00,WNW,292,1.0,4.0,58,0.00,,,0.00,45.000000,,2013-06-05 01:02:00,
2013-06-04 21:32:00,73.0,62.0,-100.00,WSW,255,2.0,3.0,68,0.00,,,0.00,11.000000,,2013-06-05 01:32:00,
2013-06-04 21:42:00,73.0,62.0,-100.00,WSW,255,2.0,3.0,68,0.00,,,0.00,11.000000,,2013-06-05 01:42:00,
2013-06-04 21:52:00,73.0,62.0,-100.00,WSW,255,2.0,3.0,68,0.00,,,0.00,11.000000,,2013-06-05 01:52:00,
2013-06-04 22:02:00,73.0,62.0,-100.00,WSW,255,2.0,3.0,68,0.00,,,0.00,11.000000,,2013-06-05 02:02:00,
2013-06-04 22:32:00,70.0,63.0,-100.00,WSW,245,1.0,3.0,79,0.00,,,0.00,0.000000,,2013-06-05 02:32:00,
2013-06-04 22:42:00,70.0,63.0,-100.00,WSW,245,1.0,3.0,79,0.00,,,0.00,0.000000,,2013-06-05 02:42:00,
2013-06-04 22:52:00,70.0,63.0,-100.00,WSW,245,1.0,3.0,79,0.00,,,0.00,0.000000,,2013-06-05 02:52:00,
2013-06-04 23:02:00,70.0,63.0,-100.00,WSW,245,1.0,3.0,79,0.00,,,0.00,0.000000,,2013-06-05 03:02:00,
2013-06-04 23:33:00,68.0,63.0,-100.00,WSW,245,2.0,3.0,83,0.00,,,0.00,0.000000,,2013-06-05 03:33:00,
2013-06-04 23:43:00,68.0,63.0,-100.00,WSW,245,2.0,3.0,83,0.00,,,0.00,0.000000,,2013-06-05 03:43:00,
2013-06-04 23:53:00,68.0,63.0,-100.00,WSW,245,2.0,3.0,83,0.00,,,0.00,0.000000,,2013-06-05 03:53:00,